Time,TemperatureF,DewpointF,PressureIn,WindDirection,WindDirectionDegrees,WindSpeedMPH,WindSpeedGustMPH,Humidity,HourlyPrecipIn,Conditions,Clouds,dailyrainin,SoftwareType,DateUTC
2013-07-25 00:03:00,51.0,47.0,30.01,SSE,161,0.0,1.0,87,0.00,,,0.03,weatherlink.com 1.10,2013-07-25 04:03:00,
2013-07-25 00:18:00,51.0,47.0,30.01,SSE,155,1.0,1.0,87,0.00,,,0.03,weatherlink.com 1.10,2013-07-25 04:18:00,
2013-07-25 00:33:00,50.9,48.0,30.01,SSE,159,0.0,1.0,88,0.00,,,0.03,weatherlink.com 1.10,2013-07-25 04:33:00,
2013-07-25 00:48:00,50.9,48.0,30.01,SSE,151,0.0,1.0,88,0.00,,,0.03,weatherlink.com 1.10,2013-07-25 04:48:00,
2013-07-25 01:03:00,50.9,48.0,30.01,South,184,0.0,1.0,88,0.00,,,0.03,weatherlink.com 1.10,2013-07-25 05:03:00,
2013-07-25 01:18:00,50.9,47.0,30.02,East,84,0.0,1.0,87,0.00,,,0.03,weatherlink.com 1.10,2013-07-25 05:18:00,
2013-07-25 01:33:00,50.8,47.0,30.02,South,175,0.0,1.0,87,0.00,,,0.03,weatherlink.com 1.10,2013-07-25 05:33:00,
2013-07-25 01:48:00,50.9,47.0,30.02,SSW,194,0.0,0.0,87,0.00,,,0.03,weatherlink.com 1.10,2013-07-25 05:48:00,
2013-07-25 02:03:00,50.8,47.0,30.02,SSW,192,0.0,1.0,87,0.00,,,0.03,weatherlink.com 1.10,2013-07-25 06:03:00,
2013-07-25 02:18:00,50.8,47.0,30.01,SSW,194,0.0,1.0,87,0.00,,,0.00,weatherlink.com 1.10,2013-07-25 06:18:00,
2013-07-25 02:33:00,50.8,47.0,30.01,SSE,165,0.0,3.0,87,0.00,,,0.00,weatherlink.com 1.10,2013-07-25 06:33:00,
2013-07-25 02:48:00,50.8,47.0,30.01,SSE,149,0.0,2.0,86,0.00,,,0.00,weatherlink.com 1.10,2013-07-25 06:48:00,
2013-07-25 03:03:00,50.8,47.0,30.01,SW,221,0.0,0.0,88,0.00,,,0.00,weatherlink.com 1.10,2013-07-25 07:03:00,
2013-07-25 03:18:00,50.7,48.0,30.01,SW,221,0.0,1.0,89,0.00,,,0.00,weatherlink.com 1.10,2013-07-25 07:18:00,
2013-07-25 03:33:00,50.6,47.0,30.01,South,186,0.0,1.0,88,0.00,,,0.00,weatherlink.com 1.10,2013-07-25 07:33:00,
2013-07-25 03:48:00,50.4,47.0,30.01,SW,219,0.0,1.0,88,0.00,,,0.00,weatherlink.com 1.10,2013-07-25 07:48:00,
2013-07-25 04:03:00,50.0,47.0,30.01,SSW,196,0.0,1.0,88,0.00,,,0.00,weatherlink.com 1.10,2013-07-25 08:03:00,
2013-07-25 04:18:00,49.5,46.0,30.01,SSW,196,0.0,1.0,89,0.00,,,0.00,weatherlink.com 1.10,2013-07-25 08:18:00,
2013-07-25 04:33:00,48.4,46.0,30.02,SSW,196,0.0,1.0,91,0.00,,,0.00,weatherlink.com 1.10,2013-07-25 08:33:00,
2013-07-25 04:48:00,47.3,45.0,30.02,SSE,165,1.0,1.0,92,0.00,,,0.00,weatherlink.com 1.10,2013-07-25 08:48:00,
2013-07-25 05:03:00,46.5,45.0,30.02,SE,142,0.0,1.0,94,0.00,,,0.00,weatherlink.com 1.10,2013-07-25 09:03:00,
2013-07-25 05:18:00,45.9,45.0,30.03,SE,134,0.0,1.0,95,0.00,,,0.00,weatherlink.com 1.10,2013-07-25 09:18:00,
2013-07-25 05:33:00,45.3,44.0,30.03,North,355,1.0,2.0,95,0.00,,,0.00,weatherlink.com 1.10,2013-07-25 09:33:00,
2013-07-25 05:48:00,45.7,45.0,30.04,NNE,25,1.0,1.0,96,0.00,,,0.00,weatherlink.com 1.10,2013-07-25 09:48:00,
2013-07-25 06:03:00,46.4,45.0,30.05,NNE,25,1.0,1.0,96,0.00,,,0.00,weatherlink.com 1.10,2013-07-25 10:03:00,
2013-07-25 06:18:00,46.8,46.0,30.05,NNE,27,0.0,1.0,95,0.00,,,0.00,weatherlink.com 1.10,2013-07-25 10:18:00,
2013-07-25 06:33:00,47.1,46.0,30.05,NNE,26,1.0,1.0,95,0.00,,,0.00,weatherlink.com 1.10,2013-07-25 10:33:00,
2013-07-25 06:48:00,49.5,47.0,30.05,NE,50,1.0,2.0,90,0.00,,,0.00,weatherlink.com 1.10,2013-07-25 10:48:00,
2013-07-25 07:03:00,51.0,47.0,30.06,ENE,73,0.0,2.0,87,0.00,,,0.00,weatherlink.com 1.10,2013-07-25 11:03:00,
2013-07-25 07:19:00,52.7,48.0,30.07,SSE,155,0.0,1.0,85,0.00,,,0.00,weatherlink.com 1.10,2013-07-25 11:19:00,
2013-07-25 07:34:00,53.5,48.0,30.07,South,173,2.0,2.0,82,0.00,,,0.00,weatherlink.com 1.10,2013-07-25 11:34:00,
2013-07-25 07:49:00,54.5,49.0,30.07,NNW,338,0.0,1.0,82,0.00,,,0.00,weatherlink.com 1.10,2013-07-25 11:49:00,
2013-07-25 08:04:00,55.0,49.0,30.08,West,263,0.0,2.0,79,0.00,,,0.00,weatherlink.com 1.10,2013-07-25 12:04:00,
2013-07-25 08:19:00,55.0,49.0,30.08,East,88,0.0,4.0,80,0.00,,,0.00,weatherlink.com 1.10,2013-07-25 12:19:00,
2013-07-25 08:34:00,56.4,49.0,30.08,WSW,248,4.0,5.0,77,0.00,,,0.00,weatherlink.com 1.10,2013-07-25 12:34:00,
2013-07-25 08:49:00,57.4,51.0,30.08,SE,141,0.0,4.0,78,0.00,,,0.00,weatherlink.com 1.10,2013-07-25 12:49:00,
2013-07-25 09:04:00,58.5,50.0,30.08,SSE,152,0.0,6.0,73,0.00,,,0.00,weatherlink.com 1.10,2013-07-25 13:04:00,
2013-07-25 09:19:00,59.3,50.0,30.10,WSW,238,1.0,3.0,72,0.00,,,0.00,weatherlink.com 1.10,2013-07-25 13:19:00,
2013-07-25 09:34:00,60.5,51.0,30.10,SW,227,0.0,3.0,70,0.00,,,0.00,weatherlink.com 1.10,2013-07-25 13:34:00,
2013-07-25 09:49:00,60.4,52.0,30.09,WNW,302,2.0,2.0,74,0.00,,,0.00,weatherlink.com 1.10,2013-07-25 13:49:00,
2013-07-25 10:04:00,61.1,51.0,30.10,SSW,195,2.0,3.0,69,0.00,,,0.00,weatherlink.com 1.10,2013-07-25 14:04:00,
2013-07-25 10:19:00,62.5,53.0,30.09,WNW,299,0.0,3.0,70,0.00,,,0.00,weatherlink.com 1.10,2013-07-25 14:19:00,
2013-07-25 10:34:00,61.6,52.0,30.10,SW,226,1.0,4.0,72,0.00,,,0.00,weatherlink.com 1.10,2013-07-25 14:34:00,
2013-07-25 10:49:00,62.7,52.0,30.11,SW,234,2.0,4.0,68,0.00,,,0.00,weatherlink.com 1.10,2013-07-25 14:49:00,
2013-07-25 11:04:00,62.0,53.0,30.10,SSW,194,2.0,4.0,73,0.00,,,0.00,weatherlink.com 1.10,2013-07-25 15:04:00,
2013-07-25 11:19:00,64.7,52.0,30.11,NW,310,1.0,3.0,64,0.00,,,0.00,weatherlink.com 1.10,2013-07-25 15:19:00,
2013-07-25 11:34:00,64.3,53.0,30.11,SW,219,2.0,3.0,66,0.00,,,0.00,weatherlink.com 1.10,2013-07-25 15:34:00,
2013-07-25 11:49:00,65.2,55.0,30.10,WSW,240,0.0,3.0,69,0.00,,,0.00,weatherlink.com 1.10,2013-07-25 15:49:00,
2013-07-25 12:04:00,66.0,53.0,30.11,West,277,0.0,3.0,64,0.00,,,0.00,weatherlink.com 1.10,2013-07-25 16:04:00,
2013-07-25 12:34:00,64.9,55.0,30.11,WSW,254,1.0,3.0,70,0.00,,,0.00,weatherlink.com 1.10,2013-07-25 16:34:00,
2013-07-25 12:49:00,65.1,55.0,30.11,East,86,2.0,2.0,70,0.00,,,0.00,weatherlink.com 1.10,2013-07-25 16:49:00,
2013-07-25 13:04:00,65.8,54.0,30.10,NNW,336,2.0,2.0,65,0.00,,,0.00,weatherlink.com 1.10,2013-07-25 17:04:00,
2013-07-25 13:19:00,66.2,56.0,30.10,SW,217,0.0,3.0,70,0.00,,,0.00,weatherlink.com 1.10,2013-07-25 17:19:00,
2013-07-25 13:34:00,66.7,57.0,30.10,SSW,210,0.0,2.0,72,0.00,,,0.00,weatherlink.com 1.10,2013-07-25 17:34:00,
2013-07-25 13:49:00,67.3,55.0,30.10,SSE,152,2.0,3.0,64,0.00,,,0.00,weatherlink.com 1.10,2013-07-25 17:49:00,
2013-07-25 14:04:00,66.4,56.0,30.10,SSE,164,0.0,1.0,69,0.00,,,0.00,weatherlink.com 1.10,2013-07-25 18:04:00,
2013-07-25 14:19:00,65.4,56.0,30.10,SW,236,0.0,1.0,71,0.00,,,0.00,weatherlink.com 1.10,2013-07-25 18:19:00,
2013-07-25 14:34:00,66.0,56.0,30.09,SW,232,1.0,2.0,70,0.00,,,0.00,weatherlink.com 1.10,2013-07-25 18:34:00,
2013-07-25 14:49:00,66.9,58.0,30.09,SSW,211,0.0,2.0,72,0.00,,,0.00,weatherlink.com 1.10,2013-07-25 18:49:00,
2013-07-25 15:05:00,66.2,56.0,30.09,SSE,151,0.0,2.0,69,0.00,,,0.00,weatherlink.com 1.10,2013-07-25 19:05:00,
2013-07-25 15:20:00,66.6,58.0,30.09,NNE,22,0.0,1.0,73,0.00,,,0.00,weatherlink.com 1.10,2013-07-25 19:20:00,
2013-07-25 15:35:00,66.4,56.0,30.09,NE,47,0.0,0.0,69,0.00,,,0.00,weatherlink.com 1.10,2013-07-25 19:35:00,
2013-07-25 16:05:00,67.0,58.0,30.09,WSW,250,0.0,1.0,73,0.00,,,0.00,weatherlink.com 1.10,2013-07-25 20:05:00,
2013-07-25 16:20:00,67.5,58.0,30.09,SE,131,0.0,0.0,72,0.00,,,0.00,weatherlink.com 1.10,2013-07-25 20:20:00,
2013-07-25 16:35:00,67.3,57.0,30.09,SE,144,0.0,3.0,70,0.00,,,0.00,weatherlink.com 1.10,2013-07-25 20:35:00,
2013-07-25 16:50:00,67.3,58.0,30.09,SSE,152,0.0,0.0,71,0.00,,,0.00,weatherlink.com 1.10,2013-07-25 20:50:00,
2013-07-25 17:05:00,67.8,58.0,30.09,SSE,153,0.0,0.0,71,0.00,,,0.00,weatherlink.com 1.10,2013-07-25 21:05:00,
2013-07-25 17:20:00,67.5,59.0,30.09,SSE,150,0.0,0.0,73,0.00,,,0.00,weatherlink.com 1.10,2013-07-25 21:20:00,
2013-07-25 17:35:00,66.2,59.0,30.09,SSE,152,0.0,0.0,77,0.00,,,0.00,weatherlink.com 1.10,2013-07-25 21:35:00,
2013-07-25 17:50:00,65.8,59.0,30.10,SSE,152,0.0,0.0,78,0.00,,,0.00,weatherlink.com 1.10,2013-07-25 21:50:00,
2013-07-25 18:05:00,65.4,59.0,30.10,SSE,152,0.0,0.0,79,0.00,,,0.00,weatherlink.com 1.10,2013-07-25 22:05:00,
2013-07-25 18:20:00,64.9,59.0,30.09,SSE,153,0.0,0.0,82,0.00,,,0.00,weatherlink.com 1.10,2013-07-25 22:20:00,
2013-07-25 18:35:00,64.3,59.0,30.09,SSE,152,0.0,0.0,82,0.00,,,0.00,weatherlink.com 1.10,2013-07-25 22:35:00,
2013-07-25 18:50:00,63.9,60.0,30.10,SSE,152,0.0,0.0,87,0.00,,,0.00,weatherlink.com 1.10,2013-07-25 22:50:00,
2013-07-25 19:05:00,63.2,60.0,30.10,SSE,152,0.0,0.0,88,0.00,,,0.00,weatherlink.com 1.10,2013-07-25 23:05:00,
2013-07-25 19:20:00,62.5,59.0,30.10,SSE,153,0.0,1.0,89,0.00,,,0.00,weatherlink.com 1.10,2013-07-25 23:20:00,
2013-07-25 19:35:00,61.6,58.0,30.10,SSE,152,0.0,1.0,89,0.00,,,0.00,weatherlink.com 1.10,2013-07-25 23:35:00,
2013-07-25 19:50:00,60.9,58.0,30.11,SSE,152,1.0,1.0,90,0.00,,,0.00,weatherlink.com 1.10,2013-07-25 23:50:00,
2013-07-25 20:05:00,60.3,57.0,30.11,SSE,152,1.0,1.0,90,0.00,,,0.00,weatherlink.com 1.10,2013-07-26 00:05:00,
2013-07-25 20:20:00,59.8,57.0,30.11,SSE,152,1.0,1.0,90,0.00,,,0.00,weatherlink.com 1.10,2013-07-26 00:20:00,
2013-07-25 20:35:00,59.5,57.0,30.10,SE,132,1.0,1.0,91,0.00,,,0.00,weatherlink.com 1.10,2013-07-26 00:35:00,
2013-07-25 20:50:00,59.2,57.0,30.11,SE,132,0.0,1.0,92,0.00,,,0.00,weatherlink.com 1.10,2013-07-26 00:50:00,
2013-07-25 21:05:00,59.1,57.0,30.11,ESE,119,2.0,2.0,92,0.00,,,0.00,weatherlink.com 1.10,2013-07-26 01:05:00,
2013-07-25 21:20:00,59.3,57.0,30.11,ESE,119,0.0,0.0,92,0.00,,,0.00,weatherlink.com 1.10,2013-07-26 01:20:00,
2013-07-25 21:35:00,59.1,57.0,30.11,ESE,119,0.0,1.0,92,0.00,,,0.00,weatherlink.com 1.10,2013-07-26 01:35:00,
2013-07-25 21:50:00,58.9,57.0,30.12,ESE,119,0.0,1.0,92,0.00,,,0.00,weatherlink.com 1.10,2013-07-26 01:50:00,
2013-07-25 22:05:00,58.9,57.0,30.11,ESE,119,0.0,0.0,94,0.00,,,0.00,weatherlink.com 1.10,2013-07-26 02:05:00,
2013-07-25 22:20:00,59.0,57.0,30.11,ESE,119,0.0,0.0,94,0.00,,,0.00,weatherlink.com 1.10,2013-07-26 02:20:00,
2013-07-25 22:35:00,58.8,57.0,30.11,ESE,120,0.0,1.0,94,0.00,,,0.00,weatherlink.com 1.10,2013-07-26 02:35:00,
2013-07-25 22:50:00,58.8,57.0,30.11,ESE,120,1.0,1.0,94,0.00,,,0.00,weatherlink.com 1.10,2013-07-26 02:50:00,
2013-07-25 23:05:00,58.8,57.0,30.11,ESE,120,1.0,1.0,95,0.00,,,0.00,weatherlink.com 1.10,2013-07-26 03:05:00,
2013-07-25 23:20:00,58.6,57.0,30.10,ESE,119,1.0,1.0,95,0.00,,,0.00,weatherlink.com 1.10,2013-07-26 03:20:00,
2013-07-25 23:35:00,58.6,58.0,30.10,ESE,119,0.0,1.0,96,0.00,,,0.00,weatherlink.com 1.10,2013-07-26 03:35:00,
2013-07-25 23:50:00,58.8,58.0,30.10,ENE,76,1.0,1.0,96,0.00,,,0.00,weatherlink.com 1.10,2013-07-26 03:50:00,